This demonstration page uses our WeatherBlox Daily Observations layout. Learn more.

Left ArrowRight Arrow

44.8408, -93.29828

Hourly Observations for May 28, 2016

Temp ( °F °C ) Dew Point ( °F °C ) Humidity (%) Winds ( mph kmh ) Pressure ( in mb ) Visibility ( mi km ) Precip ( " mm )
12:53 am 00:53 Cloudy 63 17.2 60 15.6 90 90 NW 7 11 29.75 1008 7 11 0.00 0.00
1:53 am 01:53 Cloudy 63 17.2 59 15 87 87 N 3 6 29.74 1007 10 16 0.00 0.00
2:53 am 02:53 Cloudy 62 16.7 59 15 90 90 N 3 6 29.74 1007 7 11 0.00 0.00
3:53 am 03:53 Cloudy with Mist and Fog 62 16.7 60 15.6 93 93 NW 3 6 29.75 1008 6 10 0.00 0.00
3:58 am 03:58 Cloudy with Mist and Fog 62 16.7 60 15.6 93 93 NW 5 7 29.77 1008 6 10 0.00 0.00
4:53 am 04:53 Cloudy with Mist and Fog 62 16.7 59 15 90 90 NNW 5 7 29.75 1007 6 10 0.00 0.00
5:53 am 05:53 Cloudy 62 16.7 59 15 90 90 N 5 7 29.75 1007 7 11 0.00 0.00
6:53 am 06:53 Cloudy 62 16.7 59 15 90 90 NE 8 13 29.75 1007 9 14 0.00 0.00
7:53 am 07:53 Cloudy 62 16.7 58 14.4 86 86 N 10 17 29.73 1007 10 16 0.00 0.00
8:53 am 08:53 Cloudy 62 16.7 58 14.4 86 86 NE 6 9 29.76 1008 10 16 0.00 0.00
9:53 am 09:53 Cloudy 63 17.2 58 14.4 84 84 ENE 6 9 29.76 1008 10 16 0.00 0.00
10:53 am 10:53 Cloudy 66 18.9 59 15 78 78 NNE 3 6 29.75 1008 10 16 0.00 0.00
11:46 am 11:46 Cloudy 66 19 61 16 83 83 Calm 29.77 1008 10 16 0.00 0.00
11:53 am 11:53 Cloudy 66 18.9 59 15 78 78 N 3 6 29.76 1008 10 16 0.00 0.00
12:53 pm 12:53 Cloudy 67 19.4 60 15.6 79 79 NW 6 9 29.76 1008 10 16 0.00 0.03
1:00 pm 13:00 Cloudy 67 19.4 60 15.6 79 79 NW 7 11 29.77 1008 10 16 0.00 0.00
1:08 pm 13:08 Cloudy 67 19.4 59 15 76 76 NW 5 7 29.77 1008 10 16 0.00 0.00
1:53 pm 13:53 Cloudy 67 19.4 60 15.6 79 79 NW 9 15 29.76 1008 10 16 0.00 0.00
2:53 pm 14:53 Cloudy 66 18.9 59 15 78 78 NNW 9 15 29.74 1007 10 16 0.00 0.00
3:14 pm 15:14 Cloudy with Heavy Rain 65 18.3 59 15 81 81 WNW 6 9 29.77 1008 2 3 0.03 0.76
3:16 pm 15:16 Cloudy with Heavy Rain 65 18.3 60 15.6 84 84 W 8 13 29.77 1008 1 2 0.05 1.27
3:30 pm 15:30 Cloudy with Heavy Rain 64 18 61 16 88 88 N 8 13 29.74 1007 2 3 0.00 0.00
3:45 pm 15:45 Cloudy with Rain 64 17.8 61 16.1 90 90 N 6 9 29.77 1008 3 5 0.28 7.11
3:53 pm 15:53 Cloudy with Light Rain 64 18 61 16 88 88 NNW 8 13 29.77 1008 5 8 0.00 0.00
4:25 pm 16:25 Cloudy with Mist and Fog 64 17.8 61 16.1 90 90 N 12 19 29.74 1007 6 10 0.00 0.03
4:53 pm 16:53 Mostly Cloudy 65 18.3 60 15.6 84 84 N 7 11 29.76 1008 10 16 0.00 0.03
5:34 pm 17:34 Cloudy 66 18.9 60 15.6 81 81 NNE 3 6 29.77 1008 10 16 0.00 0.00
5:53 pm 17:53 Cloudy 66 18.9 59 15 78 78 VRB 5 7 29.76 1008 10 16 0.00 0.00
6:29 pm 18:29 Cloudy 65 18.3 59 15 81 81 NNE 5 7 29.77 1008 10 16 0.00 0.00
6:53 pm 18:53 Cloudy with Light Rain 65 18.3 60 15.6 84 84 N 3 6 29.76 1008 10 16 0.00 0.03
7:53 pm 19:53 Cloudy with Light Rain 64 17.8 59 15 84 84 VRB 5 7 29.79 1009 6 10 0.01 0.25
8:25 pm 20:25 Cloudy 64 17.8 60 15.6 87 87 NNW 5 7 29.80 1009 7 11 0.01 0.25
8:53 pm 20:53 Cloudy 64 17.8 60 15.6 87 87 N 3 6 29.79 1009 8 13 0.01 0.25
9:26 pm 21:26 Cloudy 64 17.8 60 15.6 87 87 WNW 5 7 29.80 1009 10 16 0.00 0.00
9:53 pm 21:53 Cloudy 64 17.8 60 15.6 87 87 NW 3 6 29.80 1009 10 16 0.00 0.00
10:53 pm 22:53 Cloudy 64 17.8 60 15.6 87 87 W 5 7 29.80 1009 10 16 0.00 0.00
11:53 pm 23:53 Cloudy 63 17.2 60 15.6 90 90 W 3 6 29.82 1010 8 13 0.00 0.00

Powered by AerisWeather